User: anonymous   Login
Location: Unspecified
(0.0000°N, 0.0000°E)
Time: 11:39:24
(UTC+00:00)
Language:

Aussat K2 - Orbit

View from above orbital plane
View from above orbital plane
View from above satellite
View from above satellite

Ground track
Ground track

The orbit data is extracted from the following two-line orbital elements,

1 16275U 85109C   15144.65414534 -.00000034  00000-0  00000+0 0  9998
2 16275 014.8993 016.7251 0004274 178.4028 103.0896 00.99954167 97683
Epoch (UTC): 24 May 2015 15:41:58
Eccentricity: 0.0004274
inclination: 14.8993°
perigee height: 35857 km
apogee height: 35893 km
right ascension of ascending node: 16.7251°
argument of perigee: 178.4028°
revolutions per day: 0.99954167
mean anomaly at epoch: 103.0896°
orbit number at epoch: 9768

The dashed part of the orbit path shows where the satellite is in the earth's shadow,  

DLR